sat.trackr.live / text

‹ back to catalog

2025-313AD

NORAD 67275 · 2025-313AD

PAYLOAD ACTIVE UNKNOWN

§ Identity

Operator
Country
TBD
Launch date
2025-12-28
Launch site
VOSTO
Launch vehicle
Mass (kg)
RCS (m²)

External: N2YO · Heavens-Above · Gunter

§ Orbital elements

Epoch: 2026-09-20T13:01:02.354304Z

Period
94.51 min
Inclination
97.3831°
Eccentricity
0.0014240
Mean motion
15.23663754 rev/d
Perigee alt
485.0 km
Apogee alt
504.6 km
Semi-major
6,872.9 km
B*
1.6636e-4
RAAN
336.5751°
Arg perigee
39.6254°
Mean anomaly
320.6021°
Rev number
4,046

§ Raw data

2025-313AD1 67275U 25313AD  26263.54238836  .00003928  00000+0  16636-3 0  99952 67275  97.3831 336.5751 0014240  39.6254 320.6021 15.23663754 40460

JSON: /api/v1/satellites/67275 · /tle

For live sub-satellite position, see the globe view (requires WebGL).

§ Visibility from observer

Set your observer location to see the next 7 days of passes ≥ 10°. The values pass through the URL so the page stays shareable.

No JS? Fill the form by hand. The geolocation button needs JavaScript.